TimeCDT,TemperatureF,Dew PointF,Humidity,Sea Level PressureIn,VisibilityMPH,Wind Direction,Wind SpeedMPH,Gust SpeedMPH,PrecipitationIn,Events,Conditions,WindDirDegrees,DateUTC
12:52 AM,66.9,60.1,79,29.89,10.0,South,17.3,-,N/A,,Scattered Clouds,170,2013-05-18 05:52:00
1:52 AM,64.9,60.1,84,29.90,10.0,South,12.7,-,N/A,,Clear,180,2013-05-18 06:52:00
2:52 AM,63.0,59.0,87,29.89,10.0,South,9.2,-,N/A,,Partly Cloudy,170,2013-05-18 07:52:00
3:52 AM,62.1,59.0,90,29.89,10.0,South,9.2,-,N/A,,Clear,190,2013-05-18 08:52:00
4:52 AM,61.0,57.9,90,29.90,9.0,South,6.9,-,N/A,,Partly Cloudy,190,2013-05-18 09:52:00
5:52 AM,62.1,57.9,86,29.88,10.0,South,11.5,-,N/A,,Clear,180,2013-05-18 10:52:00
6:52 AM,61.0,57.9,90,29.92,8.0,South,4.6,-,N/A,,Clear,190,2013-05-18 11:52:00
7:52 AM,63.0,60.1,90,29.93,9.0,South,9.2,-,N/A,,Clear,180,2013-05-18 12:52:00
8:52 AM,66.9,62.1,84,29.92,10.0,South,11.5,-,N/A,,Clear,170,2013-05-18 13:52:00
9:52 AM,70.0,63.0,78,29.91,10.0,South,13.8,-,N/A,,Clear,180,2013-05-18 14:52:00
10:52 AM,73.0,64.0,73,29.91,10.0,SSE,13.8,-,N/A,,Clear,160,2013-05-18 15:52:00
11:52 AM,75.0,64.9,71,29.89,10.0,South,15.0,-,N/A,,Clear,170,2013-05-18 16:52:00
12:52 PM,77.0,64.0,64,29.87,10.0,SSE,16.1,-,N/A,,Clear,150,2013-05-18 17:52:00
1:52 PM,78.1,63.0,60,29.84,10.0,SSE,18.4,-,N/A,,Partly Cloudy,160,2013-05-18 18:52:00
2:52 PM,79.0,62.1,56,29.83,10.0,SSE,19.6,-,N/A,,Partly Cloudy,150,2013-05-18 19:52:00
3:52 PM,80.1,62.1,54,29.82,10.0,SSE,19.6,-,N/A,,Mostly Cloudy,160,2013-05-18 20:52:00
4:52 PM,81.0,61.0,50,29.81,10.0,South,16.1,-,N/A,,Partly Cloudy,170,2013-05-18 21:52:00
5:52 PM,82.0,61.0,49,29.81,10.0,South,18.4,-,N/A,,Scattered Clouds,190,2013-05-18 22:52:00
6:52 PM,79.0,60.1,52,29.80,10.0,SSE,15.0,-,N/A,,Scattered Clouds,160,2013-05-18 23:52:00
7:52 PM,77.0,62.1,60,29.77,10.0,SE,12.7,-,N/A,,Mostly Cloudy,140,2013-05-19 00:52:00
8:52 PM,73.9,62.1,66,29.74,10.0,SE,16.1,-,N/A,,Clear,130,2013-05-19 01:52:00
9:52 PM,73.0,61.0,66,29.77,10.0,SSE,17.3,-,N/A,,Clear,150,2013-05-19 02:52:00
10:52 PM,70.0,61.0,73,29.74,10.0,SSE,15.0,-,N/A,,Clear,150,2013-05-19 03:52:00
11:52 PM,69.1,61.0,75,29.73,10.0,SSE,15.0,-,N/A,,Clear,150,2013-05-19 04:52:00